Content
SEND FEEDBACK

Daily
Averages
Monthly
Summary
United States of America

INARAJAN, GUAM


Home > North America > United States > Guam
Elevation: 280 feet     Latitude: 13 18N     Longitude: 144 44E

WEATHER
 
SELECT A DAY
Number of Records: 342,273;   Date Range: 1/1/95 - 8/30/14
 
SHARE

PRINT THIS DATA

[ ← Previous Day ]
WEATHER ALMANAC - OCTOBER 16, 2013
[ Next Day → ]
[ °C ]   °F
Weather ElementAverageHighLow
Temperature76.8 °F78.8 °F (12:10 am)73.4 °F (5:08 am)
Dewpoint74.4 °F77 °F (12:10 am)69.8 °F (1:58 pm)
Humidity92.4 %100 % (1:33 am)83 % (1:58 pm)
Barometer29.70 in29.80 in (12:10 am)29.60 in (1:58 pm)
Wind Speed21.7 mph34.5 mph (1:44 pm)
Wind Gust51.8 mph (2:08 pm)
Weather ElementAverage
Visibility7.4 mi
Wind DirectionSSE (163.4 °)

Weather ElementTotal
Precipitation2.21 in
Cooling Degree Days11.1 (Base 65)
Growing Degree Days26.1 (Base 50)
Averaged from 146 records on October 16, 2013
WEATHER CONDITIONS BREAKOUT
WIND DIRECTION BREAKOUT
WEATHER BY HOUR - OCTOBER 16, 2013
[ °C ]   °F
Local TimeTemperatureDewpointHumidityBarometerVisibilityWind DirectionWind SpeedGust SpeedPrecipitationEventsConditions
12:10 AM78.8 °F77.0 °F94 %29.80 in8.0 miNW (310°)18.4 mphRainLight Rain
12:40 AM78.8 °F77.0 °F94 %29.79 in1.5 miNNW (330°)20.7 mph42.6 mphRainHeavy Rain
12:45 AM77.0 °F75.2 °F94 %29.79 in2.0 miNW (320°)19.6 mph42.6 mphRainRain
12:50 AM77.0 °F75.2 °F94 %29.78 in7.0 miNW (320°)17.3 mphRainLight Rain
12:55 AM77.0 °F75.2 °F94 %29.78 in10.0 miNW (320°)15.0 mphRainLight Rain
12:58 AM77.0 °F75.2 °F94 %29.74 in10.0 miNW (320°)12.7 mph0.15 inRainLight Rain
1:03 AM77.0 °F75.2 °F94 %29.77 in10.0 miNNW (340°)23.0 mph28.8 mphRainRain
1:18 AM78.8 °F77.0 °F94 %29.77 in8.0 miNorth (350°)20.7 mph27.6 mphRainLight Rain
1:33 AM77.0 °F77.0 °F100 %29.78 in10.0 miNNW (330°)19.6 mphRainLight Rain
1:38 AM77.0 °F75.2 °F94 %29.78 in10.0 miNNW (330°)16.1 mph24.2 mphRainLight Rain
1:58 AM76.8 °F75.7 °F96 %29.74 in10.0 miNorth (350°)18.4 mph26.5 mph0.03 inRainLight Rain
2:23 AM75.2 °F75.2 °F100 %29.75 in7.0 miNNW (340°)23.0 mphRainHeavy Rain
2:28 AM75.2 °F75.2 °F100 %29.74 in5.0 miNNW (340°)20.7 mphRainHeavy Rain
2:33 AM77.0 °F75.2 °F94 %29.73 in6.0 miNW (310°)13.8 mphRainHeavy Rain
2:43 AM77.0 °F77.0 °F100 %29.73 in4.0 miNW (310°)20.7 mphRainHeavy Rain
2:48 AM77.0 °F77.0 °F100 %29.74 in4.0 miNW (320°)25.3 mph29.9 mphRainHeavy Rain
2:58 AM76.8 °F75.7 °F96 %29.71 in5.0 miWNW (300°)27.6 mph34.5 mph0.17 inRainRain
3:13 AM75.2 °F73.4 °F94 %29.74 in10.0 miWNW (300°)23.0 mph32.2 mphRainLight Rain
3:58 AM75.9 °F75.0 °F97 %29.70 in5.0 miNW (310°)16.1 mph0.07 inRainLight Rain
4:08 AM77.0 °F75.2 °F94 %29.72 in2.5 miNW (310°)18.4 mphRainHeavy Rain
4:13 AM77.0 °F75.2 °F94 %29.72 in1.2 miWNW (290°)17.3 mphRainHeavy Rain
4:18 AM75.2 °F75.2 °F100 %29.72 in1.2 miWNW (300°)23.0 mphRainRain
4:23 AM75.2 °F75.2 °F100 %29.73 in2.0 miWNW (300°)19.6 mph26.5 mphRainHeavy Rain
4:28 AM75.2 °F75.2 °F100 %29.73 in1.8 miWNW (300°)20.7 mph27.6 mphRainHeavy Rain
4:33 AM75.2 °F75.2 °F100 %29.72 in2.0 miNW (310°)16.1 mph27.6 mphRainLight Rain
4:38 AM75.2 °F75.2 °F100 %29.72 in4.0 miNW (310°)20.7 mph26.5 mphRainRain
4:53 AM75.2 °F75.2 °F100 %29.73 in1.2 miNW (320°)20.7 mph36.8 mphRainHeavy Rain
4:58 AM75.6 °F75.0 °F98 %29.69 in1.0 miNW (320°)27.6 mph38.0 mph0.70 inRainHeavy Rain
5:03 AM75.2 °F73.4 °F94 %29.73 in1.5 miNW (320°)26.5 mph38.0 mphRainHeavy Rain
5:08 AM73.4 °F73.4 °F100 %29.73 in2.0 miNW (320°)20.7 mph38.0 mphRainRain
5:13 AM75.2 °F73.4 °F94 %29.73 in4.0 miNW (320°)24.2 mph31.1 mphRainRain
5:23 AM75.2 °F75.2 °F100 %29.73 in5.0 miNNW (330°)20.7 mph34.5 mphRainHeavy Rain
5:38 AM75.2 °F73.4 °F94 %29.73 in4.0 miNW (310°)19.6 mph31.1 mphRainHeavy Rain
5:43 AM75.2 °F73.4 °F94 %29.73 in5.0 miNW (310°)19.6 mph28.8 mphRainHeavy Rain
5:58 AM74.8 °F73.6 °F96 %29.70 in5.0 miNW (320°)24.2 mph32.2 mph0.27 inRainHeavy Rain
6:08 AM75.2 °F75.2 °F100 %29.73 in2.0 miNW (320°)25.3 mph31.1 mphRainHeavy Rain
6:13 AM75.2 °F75.2 °F100 %29.72 in1.5 miNW (310°)25.3 mph32.2 mphRainHeavy Rain
6:23 AM75.2 °F73.4 °F94 %29.72 in3.0 miNW (310°)27.6 mph36.8 mphRainHeavy Rain
6:28 AM75.2 °F73.4 °F94 %29.72 in3.0 miNW (320°)24.2 mph36.8 mphRainRain
6:38 AM75.2 °F75.2 °F100 %29.71 in5.0 miNW (310°)21.9 mph33.4 mphRainLight Rain
6:43 AM75.2 °F75.2 °F100 %29.72 in1.8 miNNW (330°)20.7 mph35.7 mphRainLight Rain
6:48 AM75.2 °F75.2 °F100 %29.72 in3.0 miNNW (340°)23.0 mph32.2 mphRainRain
6:53 AM75.2 °F75.2 °F100 %29.72 in1.2 miNNW (340°)19.6 mph29.9 mphRainHeavy Rain
6:58 AM75.2 °F75.2 °F100 %29.68 in0.8 miNNW (340°)23.0 mph29.9 mph0.27 inRainRain
7:03 AM75.2 °F75.2 °F100 %29.71 in1.0 miNNW (340°)23.0 mph29.9 mphRainRain
7:08 AM77.0 °F75.2 °F94 %29.72 in5.0 miNorth (350°)19.6 mph36.8 mphRainRain
7:18 AM77.0 °F75.2 °F94 %29.72 in10.0 miNorth (350°)15.0 mph31.1 mphRainLight Rain
7:23 AM77.0 °F75.2 °F94 %29.72 in10.0 miNorth (360°)11.5 mph31.1 mphRainLight Rain
7:43 AM77.0 °F75.2 °F94 %29.73 in10.0 miNorth (360°)16.1 mph31.1 mphRainLight Rain
7:53 AM75.2 °F73.4 °F94 %29.73 in10.0 miNorth (10°)15.0 mph41.4 mphRainLight Rain
7:58 AM75.2 °F75.2 °F100 %29.69 in10.0 miNorth (350°)15.0 mph26.5 mph0.04 inRainLight Rain
8:00 AM77.0 °F75.2 °F94 %29.72 in10.0 miNorth (10°)12.7 mph26.5 mphMostly Cloudy
8:20 AM77.0 °F75.2 °F94 %29.71 in10.0 miNorth (10°)15.0 mph32.2 mphOvercast
8:25 AM77.0 °F73.4 °F89 %29.71 in9.0 miNNE (20°)20.7 mph33.4 mphMostly Cloudy
8:27 AM77.0 °F75.2 °F94 %29.71 in9.0 miNNE (20°)23.0 mph33.4 mphRainRain
8:32 AM78.8 °F75.2 °F89 %29.71 in6.0 miNNE (20°)24.2 mph33.4 mphRainLight Rain
8:37 AM78.8 °F75.2 °F89 %29.70 in2.5 miNNE (20°)27.6 mph35.7 mphRainHeavy Rain
8:42 AM77.0 °F77.0 °F100 %29.70 in3.0 miNorth (10°)15.0 mph35.7 mphRainLight Rain
8:51 AM77.0 °F75.2 °F94 %29.71 in10.0 miNNE (20°)18.4 mph32.2 mphMostly Cloudy
8:58 AM77.0 °F75.4 °F95 %29.68 in10.0 miNNE (20°)24.2 mph33.4 mph0.08 inMostly Cloudy
9:08 AM78.8 °F75.2 °F89 %29.70 in10.0 miNNE (20°)27.6 mph34.5 mphMostly Cloudy
9:10 AM78.8 °F77.0 °F94 %29.70 in10.0 miNNE (20°)24.2 mph34.5 mphRainLight Rain
9:20 AM78.8 °F77.0 °F94 %29.71 in10.0 miNorth (10°)24.2 mph34.5 mphRainLight Rain
9:35 AM77.0 °F75.2 °F94 %29.70 in10.0 miNNE (30°)21.9 mph32.2 mphRainLight Rain
9:40 AM77.0 °F75.2 °F94 %29.70 in10.0 miNNE (20°)21.9 mph29.9 mphRainLight Rain
9:42 AM77.0 °F75.2 °F94 %29.70 in10.0 miNNE (20°)24.2 mph31.1 mphMostly Cloudy
9:51 AM77.0 °F77.0 °F100 %29.70 in4.0 miNNE (20°)19.6 mph33.4 mphRainHeavy Rain
9:56 AM77.0 °F75.2 °F94 %29.69 in2.5 miNorth (360°)23.0 mph33.4 mphRainLight Rain
9:58 AM77.0 °F75.2 °F94 %29.66 in2.5 miNorth (10°)23.0 mph33.4 mph0.06 inRainLight Rain
10:03 AM78.8 °F77.0 °F94 %29.69 in3.0 miNorth (10°)26.5 mph34.5 mphRainLight Rain
10:13 AM77.0 °F75.2 °F94 %29.69 in1.0 miNE (50°)20.7 mph36.8 mphRainHeavy Rain
10:18 AM75.2 °F75.2 °F100 %29.69 in0.8 miNNE (30°)20.7 mph36.8 mphRainHeavy Rain
10:23 AM73.4 °F73.4 °F100 %29.69 in2.0 miNorth (10°)20.7 mph33.4 mphRainLight Rain
10:28 AM75.2 °F75.2 °F100 %29.69 in4.0 miNNE (30°)17.3 mph33.4 mphRainLight Rain
10:33 AM75.2 °F75.2 °F100 %29.68 in5.0 miNE (40°)17.3 mph33.4 mphRainLight Rain
10:38 AM75.2 °F75.2 °F100 %29.68 in8.0 miNNE (30°)21.9 mph27.6 mphRainLight Rain
10:40 AM75.2 °F75.2 °F100 %29.68 in10.0 miNE (40°)21.9 mph29.9 mphOvercast
10:50 AM75.2 °F75.2 °F100 %29.67 in10.0 miNNE (30°)18.4 mph27.6 mphOvercast
10:58 AM76.5 °F75.2 °F96 %29.64 in10.0 miNE (40°)17.3 mph0.30 inOvercast
11:00 AM77.0 °F75.2 °F94 %29.66 in9.0 miNNE (30°)17.3 mphRainLight Rain
11:15 AM77.0 °F77.0 °F100 %29.65 in5.0 miNE (40°)18.4 mph28.8 mphRainHeavy Rain
11:28 AM77.0 °F77.0 °F100 %29.65 in10.0 miENE (70°)17.3 mphOvercast
11:33 AM78.8 °F77.0 °F94 %29.65 in4.0 miEast (90°)20.7 mph26.5 mphRainLight Rain
11:43 AM77.0 °F75.2 °F94 %29.65 in5.0 miEast (80°)24.2 mph34.5 mphRainLight Rain
11:45 AM77.0 °F75.2 °F94 %29.65 in8.0 miEast (90°)26.5 mph33.4 mphOvercast
11:58 AM77.2 °F75.2 °F94 %29.62 in10.0 miEast (80°)21.9 mph31.1 mph0.06 inMostly Cloudy
12:13 PM77.0 °F75.2 °F94 %29.65 in10.0 miEast (90°)25.3 mph33.4 mphMostly Cloudy
12:18 PM77.0 °F75.2 °F94 %29.64 in10.0 miEast (90°)26.5 mph33.4 mphMostly Cloudy
12:55 PM78.8 °F75.2 °F89 %29.64 in8.0 miEast (80°)25.3 mph40.3 mphLight Drizzle
12:58 PM78.8 °F75.2 °F89 %29.61 in8.0 miEast (80°)29.9 mph43.7 mphLight Drizzle
1:04 PM77.0 °F75.2 °F94 %29.64 in9.0 miEast (80°)25.3 mph43.7 mphMostly Cloudy
1:44 PM75.2 °F71.6 °F89 %29.63 in10.0 miEast (80°)34.5 mph42.6 mphMostly Cloudy
1:54 PM75.2 °F71.6 °F89 %29.63 in10.0 miEast (80°)31.1 mph42.6 mphMostly Cloudy
1:58 PM75.2 °F69.8 °F83 %29.60 in10.0 miEast (90°)26.5 mph41.4 mph0.00 inMostly Cloudy
2:08 PM75.2 °F71.6 °F89 %29.63 in10.0 miEast (90°)29.9 mph51.8 mphMostly Cloudy
2:21 PM77.0 °F73.4 °F89 %29.63 in10.0 miEast (90°)32.2 mph41.4 mphScattered Clouds
2:26 PM77.0 °F73.4 °F89 %29.63 in10.0 miEast (90°)31.1 mph41.4 mphMostly Cloudy
2:31 PM77.0 °F73.4 °F89 %29.63 in10.0 miEast (90°)29.9 mph41.4 mphMostly Cloudy
2:36 PM77.0 °F73.4 °F89 %29.63 in10.0 miEast (90°)32.2 mph41.4 mphMostly Cloudy
2:45 PM77.0 °F73.4 °F89 %29.63 in9.0 miEast (100°)25.3 mph41.4 mphLight Drizzle
2:54 PM75.2 °F71.6 °F89 %29.63 in10.0 miESE (110°)26.5 mph39.1 mphMostly Cloudy
2:58 PM75.6 °F71.4 °F87 %29.60 in10.0 miEast (100°)26.5 mph36.8 mph0.00 inScattered Clouds
3:23 PM78.8 °F73.4 °F83 %29.64 in10.0 miESE (110°)26.5 mph38.0 mphMostly Cloudy
3:28 PM78.8 °F73.4 °F83 %29.64 in10.0 miESE (110°)28.8 mph39.1 mphScattered Clouds
3:48 PM77.0 °F71.6 °F83 %29.65 in10.0 miEast (100°)23.0 mph35.7 mphMostly Cloudy
3:53 PM75.2 °F69.8 °F83 %29.65 in10.0 miESE (110°)27.6 mph38.0 mphMostly Cloudy
3:58 PM75.2 °F71.6 °F89 %29.62 in10.0 miESE (110°)27.6 mph38.0 mphMostly Cloudy
4:03 PM77.0 °F71.6 °F83 %29.66 in10.0 miESE (110°)25.3 mph38.0 mphMostly Cloudy
4:18 PM77.0 °F73.4 °F89 %29.66 in10.0 miESE (110°)23.0 mph35.7 mphOvercast
4:23 PM77.0 °F73.4 °F89 %29.66 in10.0 miEast (100°)23.0 mph35.7 mphMostly Cloudy
4:38 PM78.8 °F73.4 °F83 %29.67 in10.0 miEast (100°)21.9 mph33.4 mphMostly Cloudy
4:48 PM78.8 °F73.4 °F83 %29.67 in10.0 miESE (110°)21.9 mph35.7 mphScattered Clouds
4:58 PM78.4 °F73.4 °F84 %29.65 in10.0 miESE (110°)21.9 mph34.5 mphMostly Cloudy
5:08 PM78.8 °F73.4 °F83 %29.68 in10.0 miESE (110°)20.7 mphMostly Cloudy
5:13 PM78.8 °F73.4 °F83 %29.68 in10.0 miESE (110°)23.0 mph29.9 mphMostly Cloudy
5:23 PM77.0 °F73.4 °F89 %29.68 in10.0 miESE (120°)21.9 mph32.2 mphScattered Clouds
5:33 PM78.8 °F73.4 °F83 %29.68 in10.0 miESE (120°)27.6 mph32.2 mphMostly Cloudy
5:38 PM77.0 °F73.4 °F89 %29.69 in10.0 miESE (120°)19.6 mph32.2 mphMostly Cloudy
5:43 PM77.0 °F73.4 °F89 %29.69 in10.0 miESE (120°)21.9 mph32.2 mphMostly Cloudy
5:58 PM77.5 °F73.6 °F88 %29.67 in10.0 miESE (120°)24.2 mph36.8 mphScattered Clouds
6:03 PM77.0 °F73.4 °F89 %29.70 in10.0 miESE (120°)25.3 mph36.8 mphMostly Cloudy
6:13 PM77.0 °F73.4 °F89 %29.71 in10.0 miESE (110°)18.4 mph34.5 mphScattered Clouds
6:18 PM77.0 °F73.4 °F89 %29.71 in10.0 miESE (120°)25.3 mph31.1 mphMostly Cloudy
6:28 PM78.8 °F73.4 °F83 %29.71 in10.0 miESE (120°)26.5 mph33.4 mphMostly Cloudy
6:33 PM78.8 °F73.4 °F83 %29.71 in10.0 miESE (120°)21.9 mph36.8 mphScattered Clouds
6:48 PM78.8 °F73.4 °F83 %29.71 in10.0 miESE (120°)21.9 mph32.2 mphMostly Cloudy
6:53 PM78.8 °F73.4 °F83 %29.72 in10.0 miESE (110°)18.4 mph32.2 mphMostly Cloudy
6:58 PM78.4 °F74.1 °F87 %29.69 in10.0 miESE (120°)23.0 mph29.9 mphMostly Cloudy
7:18 PM78.8 °F73.4 °F83 %29.73 in10.0 miESE (120°)20.7 mph27.6 mphMostly Cloudy
7:33 PM78.8 °F73.4 °F83 %29.73 in10.0 miESE (110°)21.9 mph27.6 mphScattered Clouds
7:38 PM78.8 °F73.4 °F83 %29.73 in10.0 miESE (110°)18.4 mph27.6 mphMostly Cloudy
7:58 PM78.8 °F73.9 °F85 %29.71 in10.0 miEast (90°)18.4 mph27.6 mphMostly Cloudy
8:08 PM78.8 °F73.4 °F83 %29.75 in10.0 miEast (100°)18.4 mph26.5 mphMostly Cloudy
8:18 PM78.8 °F73.4 °F83 %29.76 in10.0 miEast (90°)20.7 mph28.8 mphScattered Clouds
8:23 PM78.8 °F73.4 °F83 %29.76 in10.0 miEast (100°)19.6 mph28.8 mphMostly Cloudy
8:28 PM78.8 °F73.4 °F83 %29.77 in10.0 miEast (90°)20.7 mph28.8 mphScattered Clouds
8:58 PM78.8 °F73.8 °F84 %29.75 in10.0 miEast (100°)18.4 mph26.5 mphScattered Clouds
9:39 PM77.0 °F73.4 °F89 %29.79 in8.0 miEast (90°)23.0 mph28.8 mphRainLight Rain
9:51 PM77.0 °F73.4 °F89 %29.79 in10.0 miEast (90°)13.8 mph26.5 mphScattered Clouds
9:58 PM77.0 °F74.5 °F92 %29.75 in10.0 miESE (110°)17.3 mph24.2 mph0.01 inScattered Clouds
10:23 PM77.0 °F73.4 °F89 %29.78 in10.0 miESE (120°)16.1 mph25.3 mphMostly Cloudy
10:25 PM77.0 °F73.4 °F89 %29.78 in8.0 miESE (110°)17.3 mph25.3 mphRainLight Rain
10:35 PM77.0 °F75.2 °F94 %29.77 in10.0 miESE (110°)17.3 mph23.0 mphMostly Cloudy
10:40 PM77.0 °F73.4 °F89 %29.78 in10.0 miEast (100°)16.1 mph23.0 mphScattered Clouds
10:58 PM77.2 °F74.3 °F91 %29.75 in10.0 miEast (100°)16.1 mph23.0 mph0.00 inScattered Clouds
11:58 PM77.4 °F73.4 °F88 %29.73 in10.0 miESE (110°)13.8 mphScattered Clouds
Hourly data recorded from PGUA, located miles away from Inarajan, Guam







STORIES FROM OUR PARTNERS